Torna al catalogo

COSMOS 2066

AttivoMilitareLEO
NORAD 20551·PAYLOAD·🇷🇺 Russia

Lanciato Apr 6, 1990 da Plesetsk Cosmodrome

Loading…

Prossimi Passaggi (prossime 24 ore)

TLE

AggiornatoSource: Space-Track

Epoca: Sep 14, 2026, 12:46 UTC

1 20551U 90029C   26257.53229465 -.00000002  00000-0  86204-4 0  9998
2 20551  73.9825 190.2582 0050034 308.3297 166.0052 12.59714635675809

Traccia COSMOS 2066 in tempo reale con AllMySat

Download on the App Store